Created_Date(Asia/Kolkata),AQI,PM2.5,PM10,Temperature,Humidity
2023-01-18 12:00:00,318,144.0,278.0,17.0,35.0
2023-01-18 12:30:00,303,124.0,238.0,18.0,34.0
2023-01-18 13:00:00,270,111.0,219.0,18.0,33.0
2023-01-18 13:30:00,301,121.0,221.0,19.0,33.0
2023-01-18 14:00:00,257,107.0,208.0,19.0,31.0
2023-01-18 14:30:00,237,101.0,214.0,21.0,30.0
2023-01-18 15:00:00,227,98.0,254.0,25.0,25.0
2023-01-18 15:30:00,160,78.0,150.0,26.0,24.0
2023-01-18 16:00:00,167,80.0,168.0,26.0,25.0
2023-01-18 16:30:00,163,79.0,168.0,24.0,27.0
2023-01-18 17:00:00,157,77.0,146.0,21.0,32.0
2023-01-18 17:30:00,173,82.0,166.0,20.0,37.0
2023-01-18 18:00:00,305,126.0,267.0,19.0,40.0
2023-01-18 18:30:00,320,146.0,271.0,18.0,42.0
2023-01-18 19:00:00,340,172.0,288.0,18.0,43.0
2023-01-18 19:30:00,354,190.0,301.0,18.0,46.0
2023-01-18 20:00:00,379,223.0,330.0,18.0,48.0
2023-01-18 20:30:00,405,256.0,368.0,18.0,47.0
2023-01-18 21:00:00,409,262.0,365.0,18.0,49.0
2023-01-18 21:30:00,415,270.0,376.0,17.0,49.0
2023-01-18 22:00:00,428,287.0,387.0,17.0,52.0
2023-01-18 22:30:00,430,289.0,382.0,17.0,51.0
2023-01-18 23:00:00,452,317.0,407.0,17.0,51.0
2023-01-18 23:30:00,455,321.0,411.0,16.0,52.0
2023-01-19 00:00:00,468,338.0,426.0,16.0,53.0
2023-01-19 00:30:00,470,341.0,428.0,16.0,54.0
2023-01-19 01:00:00,473,345.0,439.0,16.0,54.0
2023-01-19 01:30:00,466,336.0,427.0,16.0,54.0
2023-01-19 02:00:00,443,306.0,389.0,16.0,54.0
2023-01-19 02:30:00,444,307.0,402.0,16.0,51.0
2023-01-19 03:00:00,431,290.0,383.0,16.0,51.0
2023-01-19 03:30:00,417,272.0,363.0,16.0,50.0
2023-01-19 04:00:00,394,242.0,335.0,16.0,49.0
2023-01-19 04:30:00,383,228.0,319.0,15.0,48.0
2023-01-19 05:00:00,377,220.0,306.0,16.0,48.0
2023-01-19 05:30:00,388,234.0,320.0,16.0,50.0
2023-01-19 06:00:00,388,235.0,321.0,16.0,51.0
2023-01-19 06:30:00,401,251.0,341.0,16.0,52.0
2023-01-19 07:00:00,415,270.0,362.0,16.0,51.0
2023-01-19 07:30:00,415,269.0,362.0,16.0,51.0
2023-01-19 08:00:00,405,256.0,349.0,16.0,53.0
2023-01-19 08:30:00,400,250.0,343.0,17.0,57.0
2023-01-19 09:00:00,392,239.0,325.0,17.0,57.0
2023-01-19 09:30:00,382,227.0,313.0,18.0,55.0
2023-01-19 10:00:00,389,236.0,326.0,18.0,52.0
2023-01-19 10:30:00,379,223.0,320.0,19.0,51.0
2023-01-19 11:00:00,369,210.0,303.0,19.0,47.0
2023-01-19 11:30:00,367,207.0,298.0,20.0,44.0
2023-01-19 12:00:00,375,217.0,349.0,20.0,38.0
2023-01-19 12:30:00,419,249.0,445.0,20.0,36.0
2023-01-19 13:00:00,389,236.0,331.0,20.0,35.0
2023-01-19 13:30:00,392,239.0,343.0,21.0,34.0
2023-01-19 14:00:00,398,247.0,350.0,21.0,33.0
2023-01-19 14:30:00,393,241.0,335.0,22.0,32.0
2023-01-19 15:00:00,384,229.0,323.0,25.0,30.0
2023-01-19 15:30:00,379,223.0,317.0,25.0,29.0
2023-01-19 16:00:00,375,218.0,310.0,23.0,30.0
2023-01-19 16:30:00,362,201.0,299.0,22.0,32.0
2023-01-19 17:00:00,369,210.0,320.0,21.0,33.0
2023-01-19 17:30:00,372,213.0,333.0,21.0,35.0
2023-01-19 18:00:00,372,214.0,318.0,21.0,36.0
2023-01-19 18:30:00,388,234.0,351.0,20.0,37.0
2023-01-19 19:00:00,388,235.0,365.0,20.0,39.0
2023-01-19 19:30:00,395,243.0,366.0,20.0,41.0
2023-01-19 20:00:00,388,235.0,344.0,19.0,40.0
2023-01-19 20:30:00,384,229.0,335.0,19.0,40.0
2023-01-19 21:00:00,392,240.0,350.0,20.0,41.0
2023-01-19 21:30:00,408,260.0,376.0,19.0,42.0
2023-01-19 22:00:00,387,233.0,335.0,19.0,43.0
2023-01-19 22:30:00,396,245.0,346.0,18.0,45.0
2023-01-19 23:00:00,398,247.0,345.0,18.0,48.0
2023-01-19 23:30:00,400,250.0,342.0,18.0,51.0
2023-01-20 00:00:00,401,251.0,340.0,18.0,52.0
2023-01-20 00:30:00,406,258.0,348.0,17.0,54.0
2023-01-20 01:00:00,395,244.0,329.0,17.0,54.0
2023-01-20 01:30:00,386,232.0,314.0,16.0,57.0
2023-01-20 02:00:00,335,165.0,246.0,16.0,57.0
2023-01-20 02:30:00,230,99.0,169.0,16.0,57.0
2023-01-20 03:00:00,147,74.0,119.0,16.0,57.0
2023-01-20 03:30:00,100,60.0,99.0,16.0,57.0
2023-01-20 04:00:00,94,56.0,94.0,16.0,57.0
2023-01-20 04:30:00,95,57.0,92.0,16.0,58.0
2023-01-20 05:00:00,113,64.0,106.0,16.0,59.0
2023-01-20 05:30:00,123,67.0,109.0,16.0,60.0
2023-01-20 06:00:00,127,68.0,107.0,15.0,60.0
2023-01-20 06:30:00,137,71.0,123.0,16.0,62.0
2023-01-20 07:00:00,157,77.0,127.0,15.0,62.0
2023-01-20 07:30:00,177,83.0,150.0,15.0,63.0
2023-01-20 08:00:00,177,83.0,159.0,17.0,62.0
2023-01-20 08:30:00,240,102.0,182.0,16.0,60.0
2023-01-20 09:00:00,308,131.0,219.0,16.0,60.0
2023-01-20 09:30:00,305,126.0,217.0,17.0,58.0
2023-01-20 10:00:00,305,127.0,224.0,18.0,58.0
2023-01-20 10:30:00,317,142.0,238.0,19.0,55.0
2023-01-20 11:00:00,312,135.0,236.0,19.0,52.0
2023-01-20 11:30:00,250,105.0,193.0,20.0,49.0
2023-01-20 12:00:00,213,94.0,179.0,20.0,47.0
2023-01-20 12:30:00,173,82.0,149.0,21.0,46.0
2023-01-20 13:00:00,157,77.0,136.0,22.0,45.0
2023-01-20 13:30:00,160,78.0,134.0,23.0,44.0
2023-01-20 14:00:00,80,47.0,80.0,23.0,41.0
2023-01-20 14:30:00,75,41.0,75.0,24.0,37.0
2023-01-20 15:00:00,77,42.0,77.0,26.0,33.0
2023-01-20 15:30:00,93,49.0,93.0,25.0,34.0
2023-01-20 16:00:00,127,62.0,141.0,25.0,35.0
2023-01-20 16:30:00,143,73.0,148.0,23.0,38.0
2023-01-20 17:00:00,177,83.0,162.0,22.0,43.0
2023-01-20 17:30:00,250,105.0,198.0,21.0,48.0
2023-01-20 18:00:00,307,129.0,226.0,21.0,51.0
2023-01-20 18:30:00,333,163.0,259.0,20.0,54.0
2023-01-20 19:00:00,379,223.0,314.0,20.0,57.0
2023-01-20 19:30:00,383,228.0,320.0,20.0,59.0
2023-01-20 20:00:00,372,214.0,299.0,20.0,58.0
2023-01-20 20:30:00,365,204.0,285.0,20.0,57.0
2023-01-20 21:00:00,344,177.0,261.0,19.0,56.0
2023-01-20 21:30:00,329,158.0,243.0,19.0,56.0
2023-01-20 22:00:00,352,187.0,264.0,18.0,58.0
2023-01-20 22:30:00,355,192.0,268.0,18.0,59.0
2023-01-20 23:00:00,358,196.0,273.0,18.0,61.0
2023-01-20 23:30:00,372,213.0,290.0,18.0,62.0
2023-01-21 00:00:00,373,215.0,292.0,18.0,63.0
2023-01-21 00:30:00,363,202.0,281.0,18.0,64.0
2023-01-21 01:00:00,358,195.0,273.0,17.0,64.0
2023-01-21 01:30:00,368,208.0,287.0,17.0,64.0
2023-01-21 02:00:00,379,223.0,305.0,16.0,66.0
2023-01-21 02:30:00,380,224.0,308.0,16.0,67.0
2023-01-21 03:00:00,373,215.0,294.0,15.0,68.0
2023-01-21 03:30:00,371,212.0,292.0,15.0,69.0
2023-01-21 04:00:00,375,217.0,293.0,16.0,70.0
2023-01-21 04:30:00,358,196.0,272.0,16.0,70.0
2023-01-21 05:00:00,364,203.0,281.0,16.0,69.0
2023-01-21 05:30:00,368,209.0,285.0,16.0,69.0
2023-01-21 06:00:00,375,217.0,297.0,17.0,68.0
2023-01-21 06:30:00,387,233.0,320.0,17.0,67.0
2023-01-21 07:00:00,393,241.0,327.0,17.0,66.0
2023-01-21 07:30:00,390,237.0,320.0,17.0,67.0
2023-01-21 08:00:00,402,253.0,345.0,18.0,67.0
2023-01-21 08:30:00,425,283.0,376.0,18.0,68.0
2023-01-21 09:00:00,412,265.0,358.0,18.0,69.0
2023-01-21 09:30:00,432,292.0,387.0,19.0,68.0
2023-01-21 10:00:00,413,267.0,369.0,20.0,66.0
2023-01-21 10:30:00,432,292.0,395.0,20.0,64.0
2023-01-21 11:00:00,436,297.0,437.0,21.0,63.0
2023-01-21 11:30:00,423,280.0,398.0,21.0,62.0
2023-01-21 12:00:00,417,272.0,424.0,22.0,59.0
2023-01-21 12:30:00,415,270.0,436.0,22.0,50.0
2023-01-21 13:00:00,407,259.0,382.0,22.0,47.0
2023-01-21 13:30:00,402,253.0,394.0,23.0,44.0
2023-01-21 14:00:00,392,239.0,404.0,23.0,42.0
2023-01-21 14:30:00,385,231.0,341.0,24.0,41.0
2023-01-21 15:00:00,541,279.0,543.0,25.0,44.0
2023-01-21 15:30:00,395,243.0,399.0,26.0,43.0
2023-01-21 16:00:00,434,294.0,447.0,25.0,45.0
2023-01-21 16:30:00,445,309.0,413.0,24.0,46.0
2023-01-21 17:00:00,450,315.0,414.0,23.0,49.0
2023-01-21 17:30:00,449,314.0,417.0,21.0,52.0
2023-01-21 18:00:00,447,311.0,408.0,20.0,58.0
2023-01-21 18:30:00,460,328.0,432.0,21.0,62.0
2023-01-21 19:00:00,455,321.0,420.0,21.0,61.0
2023-01-21 19:30:00,466,336.0,435.0,21.0,62.0
2023-01-21 20:00:00,474,346.0,458.0,21.0,63.0
2023-01-21 20:30:00,484,359.0,478.0,21.0,63.0
2023-01-21 21:00:00,476,349.0,453.0,21.0,64.0
2023-01-21 21:30:00,482,357.0,466.0,20.0,64.0
2023-01-21 22:00:00,485,360.0,471.0,20.0,65.0
2023-01-21 22:30:00,518,392.0,524.0,18.0,66.0
2023-01-21 23:00:00,497,376.0,486.0,17.0,69.0
2023-01-21 23:30:00,453,319.0,405.0,18.0,70.0
2023-01-22 00:00:00,464,333.0,422.0,19.0,68.0
2023-01-22 00:30:00,469,340.0,433.0,19.0,68.0
2023-01-22 01:00:00,477,350.0,453.0,19.0,68.0
2023-01-22 01:30:00,476,349.0,454.0,18.0,68.0
2023-01-22 02:00:00,485,360.0,472.0,18.0,69.0
2023-01-22 02:30:00,465,335.0,427.0,18.0,71.0
2023-01-22 03:00:00,462,330.0,417.0,18.0,71.0
2023-01-22 03:30:00,465,335.0,424.0,18.0,70.0
2023-01-22 04:00:00,459,327.0,413.0,18.0,70.0
2023-01-22 04:30:00,462,331.0,422.0,17.0,71.0
2023-01-22 05:00:00,448,313.0,402.0,17.0,72.0
2023-01-22 05:30:00,438,299.0,388.0,18.0,72.0
2023-01-22 06:00:00,434,294.0,380.0,18.0,72.0
2023-01-22 06:30:00,440,302.0,386.0,18.0,71.0
2023-01-22 07:00:00,448,313.0,395.0,18.0,70.0
2023-01-22 07:30:00,461,329.0,415.0,17.0,69.0
2023-01-22 08:00:00,436,297.0,384.0,18.0,69.0
2023-01-22 08:30:00,435,295.0,381.0,18.0,70.0
2023-01-22 09:00:00,438,299.0,385.0,19.0,70.0
2023-01-22 09:30:00,457,324.0,411.0,19.0,67.0
2023-01-22 10:00:00,460,328.0,419.0,19.0,65.0
2023-01-22 10:30:00,465,335.0,427.0,19.0,61.0
2023-01-22 11:00:00,458,326.0,433.0,20.0,58.0
2023-01-22 11:30:00,455,322.0,444.0,21.0,56.0
2023-01-22 12:00:00,429,288.0,419.0,21.0,53.0
2023-01-22 12:30:00,415,270.0,391.0,22.0,50.0
2023-01-22 13:00:00,395,243.0,340.0,22.0,47.0
2023-01-22 13:30:00,402,253.0,346.0,23.0,44.0
2023-01-22 14:00:00,398,248.0,340.0,23.0,42.0
2023-01-22 14:30:00,366,206.0,299.0,24.0,40.0
2023-01-22 15:00:00,309,132.0,228.0,25.0,34.0
2023-01-22 15:30:00,304,125.0,222.0,25.0,33.0
2023-01-22 16:00:00,313,137.0,239.0,25.0,36.0
2023-01-22 16:30:00,331,160.0,252.0,24.0,38.0
2023-01-22 17:00:00,346,180.0,271.0,23.0,41.0
2023-01-22 17:30:00,373,215.0,314.0,22.0,45.0
2023-01-22 18:00:00,395,243.0,344.0,21.0,48.0
2023-01-22 18:30:00,408,260.0,361.0,21.0,51.0
2023-01-22 19:00:00,419,275.0,376.0,21.0,51.0
2023-01-22 19:30:00,427,285.0,387.0,21.0,52.0
2023-01-22 20:00:00,428,287.0,385.0,20.0,53.0
2023-01-22 20:30:00,438,299.0,392.0,20.0,55.0
2023-01-22 21:00:00,442,304.0,394.0,20.0,56.0
2023-01-22 21:30:00,435,296.0,387.0,20.0,59.0
2023-01-22 22:00:00,424,281.0,375.0,20.0,60.0
2023-01-22 22:30:00,422,278.0,370.0,19.0,60.0
2023-01-22 23:00:00,428,287.0,379.0,19.0,60.0
2023-01-22 23:30:00,412,266.0,357.0,18.0,62.0
2023-01-23 00:00:00,405,256.0,345.0,18.0,63.0
2023-01-23 00:30:00,408,260.0,346.0,17.0,65.0
2023-01-23 01:00:00,405,256.0,343.0,17.0,66.0
2023-01-23 01:30:00,397,246.0,334.0,17.0,66.0
2023-01-23 02:00:00,389,236.0,318.0,16.0,67.0
2023-01-23 02:30:00,383,228.0,304.0,16.0,68.0
2023-01-23 03:00:00,378,221.0,295.0,16.0,67.0
2023-01-23 03:30:00,377,220.0,292.0,16.0,68.0
2023-01-23 04:00:00,378,221.0,293.0,17.0,68.0
2023-01-23 04:30:00,395,244.0,320.0,17.0,68.0
2023-01-23 05:00:00,384,229.0,306.0,18.0,68.0
2023-01-23 05:30:00,382,227.0,309.0,18.0,67.0
2023-01-23 06:00:00,407,259.0,351.0,17.0,67.0
2023-01-23 06:30:00,404,255.0,346.0,17.0,68.0
2023-01-23 07:00:00,402,252.0,334.0,18.0,69.0
2023-01-23 07:30:00,414,268.0,351.0,18.0,68.0
2023-01-23 08:00:00,422,278.0,367.0,19.0,66.0
2023-01-23 08:30:00,432,291.0,385.0,19.0,63.0
2023-01-23 09:00:00,418,273.0,370.0,19.0,60.0
2023-01-23 09:30:00,408,261.0,359.0,19.0,58.0
2023-01-23 10:00:00,414,268.0,359.0,20.0,55.0
2023-01-23 10:30:00,367,207.0,290.0,20.0,49.0
2023-01-23 11:00:00,361,199.0,283.0,21.0,47.0
2023-01-23 11:30:00,354,190.0,275.0,21.0,44.0
2023-01-23 12:00:00,345,179.0,265.0,22.0,39.0
2023-01-23 12:30:00,310,133.0,232.0,22.0,36.0
2023-01-23 13:00:00,328,156.0,252.0,23.0,37.0
2023-01-23 13:30:00,305,126.0,226.0,24.0,35.0
2023-01-23 14:00:00,250,105.0,220.0,25.0,34.0
2023-01-23 14:30:00,287,116.0,254.0,25.0,33.0
2023-01-23 15:00:00,279,111.0,329.0,28.0,30.0
2023-01-23 15:30:00,254,101.0,304.0,28.0,30.0
2023-01-23 16:00:00,200,90.0,242.0,28.0,31.0
2023-01-23 16:30:00,332,123.0,376.0,28.0,35.0
2023-01-23 17:00:00,257,97.0,307.0,26.0,42.0
2023-01-23 17:30:00,273,112.0,323.0,25.0,45.0
2023-01-23 18:00:00,311,134.0,294.0,24.0,43.0
2023-01-23 18:30:00,280,114.0,254.0,23.0,44.0
2023-01-23 19:00:00,237,101.0,259.0,23.0,44.0
2023-01-23 19:30:00,273,112.0,234.0,23.0,44.0
2023-01-23 20:00:00,330,159.0,275.0,22.0,43.0
2023-01-23 20:30:00,374,216.0,339.0,22.0,44.0
2023-01-23 21:00:00,405,257.0,382.0,22.0,46.0
2023-01-23 21:30:00,410,263.0,381.0,21.0,48.0
2023-01-23 22:00:00,408,261.0,373.0,21.0,49.0
2023-01-23 22:30:00,388,234.0,328.0,20.0,52.0
2023-01-23 23:00:00,370,211.0,295.0,20.0,53.0
2023-01-23 23:30:00,373,215.0,298.0,20.0,54.0
2023-01-24 00:00:00,369,210.0,289.0,20.0,55.0
2023-01-24 00:30:00,366,206.0,286.0,20.0,57.0
2023-01-24 01:00:00,366,206.0,292.0,20.0,58.0
2023-01-24 01:30:00,372,214.0,310.0,20.0,59.0
2023-01-24 02:00:00,380,224.0,319.0,19.0,60.0
2023-01-24 02:30:00,383,228.0,316.0,19.0,61.0
2023-01-24 03:00:00,381,225.0,308.0,20.0,60.0
2023-01-24 03:30:00,387,233.0,320.0,20.0,60.0
2023-01-24 04:00:00,392,239.0,326.0,20.0,61.0
2023-01-24 04:30:00,391,238.0,325.0,20.0,61.0
2023-01-24 05:00:00,393,241.0,330.0,20.0,61.0
2023-01-24 05:30:00,390,237.0,326.0,20.0,61.0
2023-01-24 06:00:00,370,211.0,288.0,20.0,62.0
2023-01-24 06:30:00,343,176.0,252.0,19.0,64.0
2023-01-24 07:00:00,315,140.0,224.0,19.0,66.0
2023-01-24 07:30:00,277,113.0,207.0,20.0,65.0
2023-01-24 08:00:00,227,98.0,181.0,20.0,65.0
2023-01-24 08:30:00,193,88.0,171.0,20.0,65.0
2023-01-24 09:00:00,150,75.0,139.0,21.0,64.0
2023-01-24 09:30:00,137,71.0,142.0,21.0,63.0
2023-01-24 10:00:00,141,68.0,162.0,21.0,61.0
2023-01-24 10:30:00,143,64.0,164.0,21.0,61.0
2023-01-24 11:00:00,237,86.0,287.0,21.0,61.0
2023-01-24 11:30:00,167,69.0,201.0,21.0,61.0
2023-01-24 12:00:00,202,77.0,252.0,22.0,59.0
2023-01-24 12:30:00,180,74.0,220.0,23.0,57.0
2023-01-24 13:00:00,111,47.0,117.0,23.0,57.0
2023-01-24 13:30:00,93,45.0,93.0,23.0,58.0
2023-01-24 14:00:00,103,51.0,105.0,23.0,58.0
2023-01-24 14:30:00,125,58.0,138.0,24.0,59.0
2023-01-24 15:00:00,110,52.0,115.0,23.0,59.0
2023-01-24 15:30:00,101,48.0,101.0,23.0,58.0
2023-01-24 16:00:00,103,50.0,105.0,24.0,57.0
2023-01-24 16:30:00,96,50.0,96.0,24.0,59.0
2023-01-24 17:00:00,113,58.0,119.0,23.0,61.0
2023-01-24 17:30:00,141,67.0,162.0,23.0,64.0
2023-01-24 18:00:00,172,75.0,208.0,23.0,65.0
2023-01-24 18:30:00,177,83.0,187.0,23.0,66.0
2023-01-24 19:00:00,183,85.0,212.0,22.0,67.0
2023-01-24 19:30:00,153,76.0,156.0,22.0,67.0
2023-01-24 20:00:00,143,73.0,135.0,22.0,65.0
2023-01-24 20:30:00,157,77.0,141.0,22.0,67.0
2023-01-24 21:00:00,143,73.0,123.0,22.0,67.0
2023-01-24 21:30:00,163,79.0,133.0,22.0,68.0
2023-01-24 22:00:00,117,65.0,104.0,22.0,68.0
2023-01-24 22:30:00,93,56.0,86.0,21.0,68.0
2023-01-24 23:00:00,90,54.0,82.0,21.0,69.0
2023-01-24 23:30:00,98,59.0,92.0,21.0,70.0
2023-01-25 00:00:00,107,62.0,97.0,21.0,71.0
2023-01-25 00:30:00,127,68.0,108.0,21.0,70.0
2023-01-25 01:00:00,133,70.0,116.0,21.0,70.0
2023-01-25 01:30:00,143,73.0,122.0,21.0,70.0
2023-01-25 02:00:00,130,69.0,115.0,21.0,71.0
2023-01-25 02:30:00,150,75.0,121.0,20.0,71.0
2023-01-25 03:00:00,147,74.0,116.0,20.0,71.0
2023-01-25 03:30:00,143,73.0,113.0,20.0,72.0
2023-01-25 04:00:00,130,69.0,111.0,20.0,72.0
2023-01-25 04:30:00,150,75.0,122.0,20.0,71.0
2023-01-25 05:00:00,190,87.0,149.0,20.0,71.0
2023-01-25 05:30:00,220,96.0,182.0,20.0,71.0
2023-01-25 06:00:00,300,120.0,215.0,20.0,70.0
2023-01-25 06:30:00,340,172.0,258.0,20.0,70.0
2023-01-25 07:00:00,370,211.0,286.0,19.0,72.0
2023-01-25 07:30:00,368,208.0,279.0,20.0,71.0
2023-01-25 08:00:00,352,188.0,275.0,20.0,68.0
2023-01-25 08:30:00,359,197.0,289.0,20.0,69.0
2023-01-25 09:00:00,352,187.0,270.0,21.0,69.0
2023-01-25 09:30:00,335,166.0,259.0,21.0,67.0
2023-01-25 10:00:00,309,132.0,235.0,21.0,66.0
2023-01-25 10:30:00,270,111.0,217.0,21.0,65.0
2023-01-25 11:00:00,283,115.0,223.0,21.0,64.0
2023-01-25 11:30:00,304,125.0,232.0,21.0,64.0
2023-01-25 12:00:00,337,168.0,278.0,21.0,64.0
2023-01-25 12:30:00,346,180.0,287.0,22.0,63.0
2023-01-25 13:00:00,358,195.0,312.0,21.0,64.0
2023-01-25 13:30:00,358,196.0,288.0,21.0,64.0
2023-01-25 14:00:00,365,205.0,299.0,21.0,64.0
2023-01-25 14:30:00,358,195.0,310.0,21.0,64.0
2023-01-25 15:00:00,375,218.0,356.0,21.0,65.0
2023-01-25 15:30:00,368,209.0,316.0,21.0,66.0
2023-01-25 16:00:00,360,198.0,312.0,20.0,68.0
2023-01-25 16:30:00,375,218.0,333.0,20.0,68.0
2023-01-25 17:00:00,376,219.0,333.0,20.0,68.0
2023-01-25 17:30:00,367,207.0,332.0,20.0,69.0
2023-01-25 18:00:00,351,186.0,297.0,20.0,70.0
2023-01-25 18:30:00,352,187.0,291.0,20.0,70.0
2023-01-25 19:00:00,350,185.0,291.0,20.0,70.0
2023-01-25 19:30:00,352,188.0,289.0,20.0,70.0
2023-01-25 20:00:00,340,172.0,273.0,20.0,71.0
2023-01-25 20:30:00,335,165.0,270.0,20.0,71.0
2023-01-25 21:00:00,335,165.0,269.0,20.0,71.0
2023-01-25 21:30:00,335,165.0,267.0,20.0,72.0
2023-01-25 22:00:00,341,173.0,273.0,20.0,72.0
2023-01-25 22:30:00,352,188.0,291.0,20.0,73.0
2023-01-25 23:00:00,347,181.0,281.0,20.0,74.0
2023-01-25 23:30:00,338,170.0,268.0,20.0,74.0
2023-01-26 00:00:00,339,171.0,274.0,20.0,74.0
2023-01-26 00:30:00,361,199.0,300.0,19.0,75.0
2023-01-26 01:00:00,352,188.0,291.0,19.0,76.0
2023-01-26 01:30:00,358,195.0,293.0,19.0,76.0
2023-01-26 02:00:00,355,191.0,297.0,19.0,77.0
2023-01-26 02:30:00,352,187.0,301.0,19.0,77.0
2023-01-26 03:00:00,362,201.0,312.0,19.0,76.0
2023-01-26 03:30:00,378,222.0,344.0,18.0,76.0
2023-01-26 04:00:00,378,221.0,344.0,18.0,76.0
2023-01-26 04:30:00,371,212.0,327.0,18.0,76.0
2023-01-26 05:00:00,384,229.0,353.0,18.0,76.0
2023-01-26 05:30:00,378,221.0,346.0,18.0,76.0
2023-01-26 06:00:00,388,234.0,359.0,18.0,74.0
2023-01-26 06:30:00,395,243.0,381.0,18.0,75.0
2023-01-26 07:00:00,389,236.0,372.0,18.0,74.0
2023-01-26 07:30:00,382,227.0,355.0,18.0,75.0
2023-01-26 08:00:00,413,267.0,400.0,17.0,75.0
2023-01-26 08:30:00,415,269.0,405.0,16.0,76.0
2023-01-26 09:00:00,409,262.0,403.0,16.0,78.0
2023-01-26 09:30:00,400,250.0,383.0,16.0,78.0
2023-01-26 10:00:00,396,245.0,374.0,16.0,79.0
2023-01-26 10:30:00,400,250.0,391.0,16.0,78.0
2023-01-26 11:00:00,402,253.0,400.0,16.0,77.0
2023-01-26 11:30:00,398,248.0,395.0,16.0,78.0
2023-01-26 12:00:00,398,247.0,388.0,16.0,76.0
2023-01-26 12:30:00,385,231.0,363.0,16.0,75.0
2023-01-26 13:00:00,384,229.0,360.0,16.0,73.0
2023-01-26 13:30:00,370,211.0,339.0,17.0,71.0
2023-01-26 14:00:00,355,192.0,322.0,19.0,66.0
2023-01-26 14:30:00,358,196.0,326.0,20.0,64.0
2023-01-26 15:00:00,356,193.0,320.0,20.0,62.0
2023-01-26 15:30:00,351,186.0,316.0,20.0,62.0
2023-01-26 16:00:00,355,192.0,316.0,20.0,62.0
2023-01-26 16:30:00,362,200.0,330.0,19.0,63.0
2023-01-26 17:00:00,352,187.0,318.0,18.0,65.0
2023-01-26 17:30:00,355,192.0,318.0,18.0,66.0
2023-01-26 18:00:00,362,201.0,320.0,18.0,67.0
2023-01-26 18:30:00,375,218.0,338.0,18.0,69.0
2023-01-26 19:00:00,360,198.0,315.0,17.0,71.0
2023-01-26 19:30:00,361,199.0,307.0,17.0,72.0
2023-01-26 20:00:00,368,208.0,313.0,17.0,73.0
2023-01-26 20:30:00,343,176.0,280.0,17.0,72.0
2023-01-26 21:00:00,352,188.0,284.0,17.0,69.0
2023-01-26 21:30:00,344,177.0,277.0,16.0,68.0
2023-01-26 22:00:00,327,155.0,259.0,17.0,69.0
2023-01-26 22:30:00,330,159.0,265.0,17.0,69.0
2023-01-26 23:00:00,325,152.0,255.0,17.0,70.0
2023-01-26 23:30:00,318,143.0,246.0,17.0,69.0
2023-01-27 00:00:00,310,133.0,234.0,17.0,68.0
2023-01-27 00:30:00,302,123.0,227.0,16.0,66.0
2023-01-27 01:00:00,293,118.0,220.0,16.0,66.0
2023-01-27 01:30:00,297,119.0,222.0,16.0,65.0
2023-01-27 02:00:00,310,133.0,235.0,15.0,65.0
2023-01-27 02:30:00,307,129.0,231.0,15.0,64.0
2023-01-27 03:00:00,302,122.0,224.0,15.0,62.0
2023-01-27 03:30:00,332,161.0,259.0,15.0,60.0
2023-01-27 04:00:00,336,167.0,264.0,14.0,59.0
2023-01-27 04:30:00,316,141.0,240.0,14.0,59.0
2023-01-27 05:00:00,307,129.0,229.0,14.0,60.0
2023-01-27 05:30:00,302,123.0,224.0,14.0,60.0
2023-01-27 06:00:00,280,114.0,217.0,15.0,58.0
2023-01-27 06:30:00,263,109.0,215.0,15.0,58.0
2023-01-27 07:00:00,267,110.0,220.0,15.0,57.0
2023-01-27 07:30:00,297,119.0,231.0,15.0,57.0
2023-01-27 08:00:00,308,130.0,247.0,15.0,57.0
2023-01-27 08:30:00,283,115.0,225.0,15.0,53.0
2023-01-27 09:00:00,263,109.0,220.0,15.0,50.0
2023-01-27 09:30:00,247,104.0,218.0,16.0,47.0
2023-01-27 10:00:00,243,103.0,215.0,16.0,47.0
2023-01-27 10:30:00,273,112.0,246.0,16.0,47.0
2023-01-27 11:00:00,253,106.0,217.0,17.0,49.0
2023-01-27 11:30:00,260,108.0,219.0,17.0,49.0
2023-01-27 12:00:00,267,110.0,217.0,18.0,49.0
2023-01-27 12:30:00,250,105.0,213.0,18.0,48.0
2023-01-27 13:00:00,233,100.0,204.0,19.0,47.0
2023-01-27 13:30:00,213,94.0,186.0,22.0,42.0
2023-01-27 14:00:00,193,88.0,176.0,21.0,41.0
2023-01-27 14:30:00,183,85.0,170.0,22.0,38.0
2023-01-27 15:00:00,173,82.0,159.0,26.0,32.0
2023-01-27 15:30:00,173,82.0,162.0,27.0,31.0
2023-01-27 16:00:00,167,80.0,150.0,26.0,31.0
2023-01-27 16:30:00,170,81.0,165.0,25.0,34.0
2023-01-27 17:00:00,187,86.0,180.0,21.0,40.0
2023-01-27 17:30:00,203,91.0,196.0,20.0,44.0
2023-01-27 18:00:00,207,92.0,204.0,20.0,46.0
2023-01-27 18:30:00,243,103.0,217.0,20.0,48.0
2023-01-27 19:00:00,293,118.0,233.0,19.0,49.0
2023-01-27 19:30:00,287,116.0,229.0,19.0,48.0
2023-01-27 20:00:00,290,117.0,229.0,18.0,48.0
2023-01-27 20:30:00,302,123.0,236.0,18.0,49.0
2023-01-27 21:00:00,287,116.0,222.0,17.0,49.0
2023-01-27 21:30:00,273,112.0,216.0,17.0,50.0
2023-01-27 22:00:00,253,106.0,209.0,17.0,50.0
2023-01-27 22:30:00,240,102.0,203.0,17.0,51.0
2023-01-27 23:00:00,280,114.0,219.0,17.0,52.0
2023-01-27 23:30:00,283,115.0,219.0,17.0,53.0
2023-01-28 00:00:00,290,117.0,220.0,16.0,54.0
2023-01-28 00:30:00,302,123.0,225.0,16.0,54.0
2023-01-28 01:00:00,322,149.0,245.0,16.0,55.0
2023-01-28 01:30:00,316,141.0,240.0,16.0,56.0
2023-01-28 02:00:00,316,141.0,239.0,16.0,56.0
2023-01-28 02:30:00,323,150.0,247.0,15.0,56.0
2023-01-28 03:00:00,321,147.0,246.0,15.0,55.0
2023-01-28 03:30:00,320,146.0,241.0,15.0,56.0
2023-01-28 04:00:00,336,167.0,259.0,15.0,57.0
2023-01-28 04:30:00,331,160.0,253.0,14.0,58.0
2023-01-28 05:00:00,328,156.0,257.0,15.0,59.0
2023-01-28 05:30:00,324,151.0,247.0,14.0,58.0
2023-01-28 06:00:00,320,146.0,247.0,14.0,57.0
2023-01-28 06:30:00,314,138.0,243.0,14.0,57.0
2023-01-28 07:00:00,318,144.0,257.0,15.0,56.0
2023-01-28 07:30:00,314,138.0,249.0,15.0,55.0
2023-01-28 08:00:00,307,129.0,245.0,15.0,54.0
2023-01-28 08:30:00,307,129.0,244.0,15.0,54.0
2023-01-28 09:00:00,321,147.0,267.0,16.0,52.0
2023-01-28 09:30:00,330,159.0,279.0,16.0,51.0
2023-01-28 10:00:00,322,148.0,292.0,17.0,50.0
2023-01-28 10:30:00,316,141.0,280.0,17.0,50.0
2023-01-28 11:00:00,305,126.0,259.0,18.0,50.0
2023-01-28 11:30:00,267,110.0,218.0,19.0,48.0
2023-01-28 12:00:00,287,116.0,236.0,19.0,46.0
2023-01-28 12:30:00,277,113.0,224.0,20.0,44.0
2023-01-28 13:00:00,260,108.0,219.0,21.0,41.0
2023-01-28 13:30:00,220,96.0,195.0,24.0,37.0
2023-01-28 14:00:00,217,95.0,203.0,23.0,37.0
2023-01-28 14:30:00,197,89.0,198.0,25.0,34.0
2023-01-28 15:00:00,180,84.0,193.0,30.0,28.0
2023-01-28 15:30:00,167,80.0,183.0,31.0,25.0
2023-01-28 16:00:00,170,81.0,188.0,31.0,26.0
2023-01-28 16:30:00,170,81.0,178.0,29.0,29.0
2023-01-28 17:00:00,197,89.0,193.0,24.0,37.0
2023-01-28 17:30:00,237,101.0,216.0,23.0,41.0
2023-01-28 18:00:00,273,112.0,232.0,22.0,44.0
2023-01-28 18:30:00,313,137.0,256.0,21.0,47.0
2023-01-28 19:00:00,330,159.0,283.0,21.0,49.0
2023-01-28 19:30:00,359,197.0,310.0,21.0,52.0
2023-01-28 20:00:00,374,216.0,318.0,20.0,54.0
2023-01-28 20:30:00,371,212.0,313.0,20.0,55.0
2023-01-28 21:00:00,368,208.0,302.0,20.0,57.0
2023-01-28 21:30:00,372,213.0,304.0,20.0,57.0
2023-01-28 22:00:00,375,217.0,306.0,20.0,58.0
2023-01-28 22:30:00,373,215.0,306.0,20.0,59.0
2023-01-28 23:00:00,378,222.0,315.0,19.0,59.0
2023-01-28 23:30:00,366,206.0,290.0,19.0,60.0
2023-01-29 00:00:00,369,210.0,293.0,19.0,61.0
2023-01-29 00:30:00,372,214.0,300.0,19.0,61.0
2023-01-29 01:00:00,372,214.0,293.0,18.0,61.0
2023-01-29 01:30:00,375,217.0,302.0,18.0,63.0
2023-01-29 02:00:00,374,216.0,298.0,18.0,63.0
2023-01-29 02:30:00,377,220.0,301.0,18.0,64.0
2023-01-29 03:00:00,380,224.0,306.0,18.0,64.0